User: anonymous   Login
Location: Lawrence Hall of Science
(37.8785°N, 122.2415°W)
Time: 17:05:00
(UTC-07:00)
Language:

ARGOS - Orbit

View from above orbital plane
View from above orbital plane
View from above satellite
View from above satellite

Ground track
Ground track

The orbit data is extracted from the following two-line orbital elements,

1 25634U 99008A   17147.82326506 -.00000009 +00000-0 +15996-4 0  9992
2 25634 098.6204 211.1656 0009043 266.1308 093.8835 14.19311676945109
Epoch (UTC): 27 May 2017 19:45:30
Eccentricity: 0.0009043
inclination: 98.6204°
perigee height: 821 km
apogee height: 834 km
right ascension of ascending node: 211.1656°
argument of perigee: 266.1308°
revolutions per day: 14.19311676
mean anomaly at epoch: 93.8835°
orbit number at epoch: 94510

The dashed part of the orbit path shows where the satellite is in the earth's shadow,  

DLR